SCP
0 0 0 0 0 0 0 0 0 0 0 0 0 0 0 0 0 0 0 0 0 0 0 0 0 0 0 0 0 0 0 0 0 0 0 0 0 0 0 0 0 0 0 0
0 0 0 0 0 0 0 0 0 0 0 0 0 0 0 0 0 0 0 0 0 0 0 0 0 0 0 0 0 0 0 0 0 0 0 0 0 0 0 0 0 0 0 0
0 0 0 0 0 0 0 0 0 0 0 0 0 0 0 0 0 0 0 0 0 0 0 0 0 0 0 0 0 0 0 0 0 0 0 0 0 0 0 0 0 0 0 0
0 0 0 0 0 0 0 0 0 0 0 0 0 0 0 0 0 0 0 0 0 0 0 0 0 0 0 0 0 0 0 0 0 0 0 0 0 0 0 0 0 0 0 0
0 0 0 0 0 0 0 0 0 0 0 0 0 0 0 0 0 0 0 0 0 0 0 0 0 0 0 0 0 0 0 0 0 0 0 0 0 0 0 0 0 0 0 0
0 0 0 0 0 0 0 0 0 0 0 0 0 0 0 0 0 0 0 0 0 0 0 0 0 0 0 0 0 0 0 0 0 0 0 0 0 0 0 0 0 0 0 0
0 0 0 0 0 0 0 0 0 0 0 0 0 0 0 0 0 0 0 0 0 0 0 0 0 0 0 0 0 0 0 0 0 0 0 0 0 0 0 0 0 0 0 0
0 0 0 0 0 0 0 0 0 0 0 0 0 0 0 0 0 0 0 0 0 0 0 0 0 0 0 0 0 0 0 0 0 0 0 0 0 0 0 0 0 0 0 0
0 0 0 0 0 0 0 0 0 0 0 0 0 0 0 0 0 0 0 0 0 0 0 0 0 0 0 0 0 0 0 0 0 0 0 0 0 0 0 0 0 0 0 0
0 0 0 0 0 0 0 0 0 0 0 0 0 0 0 0 0 0 0 0 0 0 0 0 0 0 0 0 0 0 0 0 0 0 0 0 0 0 0 0 0 0 0 0
0 0 0 0 0 0 0 0 0 0 0 0 0 0 0 0 0 0 0 0 0 0 0 0 0 0 0 0 0 0 0 0 0 0 0 0 0 0 0 0 0 0 0 0
0 0 0 0 0 0 0 0 0 0 0 0 0 0 0 0 0 0 0 0 0 0 0 0 0 0 0 0 0 0 0 0 0 0 0 0 0 0 0 0 0 0 0 0
0 0 0 0 0 0 0 0 0 0 0 0 0 0 0 0 0 0 0 0 0 0 0 0 0 0 0 0 0 0 0 0 0 0 0 0 0 0 0 0 0 0 0 0
0 0 0 0 0 0 0 0 0 0 0 0 0 0 0 0 0 0 0 0 0 0 0 0 0 0 0 0 0 0 0 0 0 0 0 0 0 0 0 0 0 0 0 0
0 0 0 0 0 0 0 0 0 0 0 0 0 0 0 0 0 0 0 0 0 0 0 0 0 0 0 0 0 0 0 0 0 0 0 0 0 0 0 0 0 0 0 0
0 0 0 0 0 0 0 0 0 0 0 0 0 0 0 0 0 0 0 0 0 0 0 0 0 0 0 0 0 0 0 0 0 0 0 0 0 0 0 0 0 0 0 0
0 0 0 0 0 0 0 0 0 0 0 0 0 0 0 0 0 0 0 0 0 0 0 0 0 0 0 0 0 0 0 0 0 0 0 0 0 0 0 0 0 0 0 0
0 0 0 0 0 0 0 0 0 0 0 0 0 0 0 0 0 0 0 0 0 0 0 0 0 0 0 0 0 0 0 0 0 0 0 0 0 0 0 0 0 0 0 0
0 0 0 0 0 0 0 0 0 0 0 0 0 0 0 0 0 0 0 0 0 0 0 0 0 0 0 0 0 0 0 0 0 0 0 0 0 0 0 0 0 0 0 0
0 0 0 0 0 0 0 0 0 0 0 0 0 0 0 0 0 0 0 0 0 0 0 0 0 0 0 0 0 0 0 0 0 0 0 0 0 0 0 0 0 0 0 0
0 0 0 0 0 0 0 0 0 0 0 0 0 0 0 0 0 0 0 0 0 0 0 0 0 0 0 0 0 0 0 0 0 0 0 0 0 0 0 0 0 0 0 0
0 0 0 0 0 0 0 0 0 0 0 0 0 0 0 0 0 0 0 0 0 0 0 0 0 0 0 0 0 0 0 0 0 0 0 0 0 0 0 0 0 0 0 0
0 0 0 0 0 0 0 0 0 0 0 0 0 0 0 0 0 0 0 0 0 0 0 0 0 0 0 0 0 0 0 0 0 0 0 0 0 0 0 0 0 0 0 0
0 0 0 0 0 0 0 0 0 0 0 0 0 0 0 0 0 0 0 0 0 0 0 0 0 0 0 0 0 0 0 0 0 0 0 0 0 0 0 0 0 0 0 0
0 0 0 0 0 0 0 0 0 0 0 0 0 0 0 0 0 0 0 0 0 0 0 0 0 0 0 0 0 0 0 0 0 0 0 0 0 0 0 0 0 0 0 0
0 0 0 0 0 0 0 0 0 0 0 0 0 0 0 0 0 0 0 0 0 0 0 0 0 0 0 0 0 0 0 0 0 0 0 0 0 0 0 0 0 0 0 0
0 0 0 0 0 0 0 0 0 0 0 0 0 0 0 0 0 0 0 0 0 0 0 0 0 0 0 0 0 0 0 0 0 0 0 0 0 0 0 0 0 0 0 0
Wind_Speed
4 3 2 2 4 5 5 4 4 0 2 2 2 2 2 2 3 4 5 7 9 10 9 7 7 7 7 7 7 7 8 9 9 8 8 8 9 9 9 10 10 10 10 10
5 4 4 7 8 8 7 6 6 5 5 3 3 4 4 4 4 4 5 7 9 10 10 9 7 6 5 6 6 7 8 8 8 7 7 8 8 9 10 10 10 10 10 10
3 3 6 8 9 12 8 8 8 7 4 6 6 5 5 4 4 5 5 7 8 9 9 8 7 6 6 6 5 6 7 8 7 7 7 7 7 8 9 9 10 10 10 9
3 4 5 5 3 7 9 9 11 7 5 7 5 4 4 5 6 5 5 6 8 9 9 8 7 5 3 3 3 5 7 7 7 6 6 6 7 7 8 8 8 8 9 9
4 4 5 3 6 7 8 8 13 14 10 9 6 5 7 7 7 5 5 6 7 7 8 8 7 6 4 3 3 5 6 6 6 6 6 6 7 7 7 7 7 7 7 8
4 6 3 3 7 7 5 7 10 15 14 12 10 7 5 6 6 5 4 5 5 6 7 7 7 6 5 4 4 5 5 5 5 6 6 6 6 6 6 6 6 6 6 7
7 6 5 4 9 10 7 1 8 14 15 14 13 5 6 6 5 4 3 3 4 5 5 5 6 5 4 5 5 4 4 4 4 5 5 5 5 5 5 5 6 6 6 6
6 7 3 11 12 10 4 4 7 12 14 14 11 7 6 6 5 4 3 2 3 4 4 4 5 5 4 5 4 3 3 3 4 4 4 4 5 5 5 5 5 6 6 7
7 4 4 13 10 7 3 6 7 11 13 14 12 11 9 7 6 5 4 2 2 3 3 3 4 4 5 4 2 3 4 4 3 4 4 4 4 5 4 5 5 5 5 6
8 9 8 12 13 9 7 7 7 11 13 14 13 12 10 8 7 6 5 3 2 3 2 2 3 3 3 2 1 3 3 3 3 2 3 3 3 3 4 5 5 5 6 6
9 9 6 11 16 16 12 9 7 11 13 14 13 12 11 9 8 6 5 4 4 3 2 2 2 2 2 1 1 3 3 3 2 2 2 2 3 3 3 4 5 6 7 6
7 5 5 3 6 15 16 15 12 13 14 13 13 12 12 10 8 7 6 6 5 4 4 2 1 2 1 0 2 3 3 3 2 2 1 1 1 2 2 1 2 3 5 7
6 1 4 2 3 10 17 17 15 15 15 14 13 12 12 10 9 8 7 7 6 5 4 3 3 2 0 1 3 4 3 3 2 2 1 0 1 2 2 3 4 3 4 6
10 6 6 7 6 9 14 16 15 15 15 15 13 13 11 10 9 10 9 8 7 6 5 5 4 3 1 2 3 4 4 3 3 3 2 1 0 1 2 2 2 2 4 4
13 14 11 3 5 8 11 14 15 15 15 15 13 13 13 12 11 10 9 8 7 7 6 6 5 4 2 3 4 4 4 4 4 3 3 2 1 1 0 1 1 1 1 4
8 12 13 12 10 10 13 16 17 17 16 16 15 14 14 13 11 10 9 9 9 8 7 7 6 5 4 4 4 4 4 3 4 4 4 3 3 2 2 1 1 1 1 2
10 10 12 15 16 15 16 17 17 17 17 17 17 16 14 13 12 11 10 10 10 8 7 7 7 5 5 5 5 4 4 5 7 6 5 4 3 3 3 2 1 1 1 2
15 14 12 13 14 16 17 17 17 17 17 17 16 16 15 15 15 13 12 11 10 9 9 8 7 7 6 6 5 4 4 4 5 5 4 4 4 4 4 3 3 2 2 3
15 16 16 15 14 14 15 16 16 16 16 16 17 17 17 16 15 14 12 11 11 11 10 10 8 9 8 7 5 5 5 5 5 5 5 5 5 5 5 5 4 4 3 3
15 15 16 16 15 14 14 13 14 14 15 16 17 17 17 16 15 14 13 12 11 9 8 7 10 10 9 8 7 6 6 5 5 5 5 5 6 6 5 5 5 5 4 4
16 15 14 15 15 15 14 13 13 14 15 16 17 17 17 16 15 13 12 11 11 10 9 9 8 7 8 6 9 7 6 6 6 5 5 6 6 6 6 6 6 6 6 5
17 15 14 13 13 13 13 12 12 13 14 15 16 16 15 15 15 13 13 10 8 10 9 8 9 9 8 8 8 7 7 7 6 5 5 6 6 6 6 6 6 6 6 6
17 16 15 12 11 11 10 10 11 11 13 14 15 16 15 13 11 11 10 9 8 11 9 8 9 12 13 10 8 8 8 8 7 6 6 6 6 6 6 6 6 6 6 6
18 18 16 14 10 7 5 6 7 7 9 10 11 12 12 10 9 9 7 7 10 12 9 9 12 14 14 9 8 8 8 8 7 7 6 6 6 6 6 6 6 6 6 7
16 17 17 16 13 10 9 6 2 3 5 5 6 8 8 7 7 7 7 8 9 10 8 10 14 15 12 10 9 9 8 8 7 6 6 6 6 6 6 6 6 6 6 6
12 11 12 13 12 11 10 8 6 4 1 1 2 3 4 4 5 5 5 7 10 10 8 7 9 12 11 10 10 10 9 8 8 8 9 8 8 8 7 7 8 7 7 7
9 8 8 10 11 12 11 10 9 8 7 5 3 2 1 2 3 4 5 5 6 7 7 6 7 8 9 9 9 9 9 8 8 8 8 8 8 8 8 9 7 7 7 7
Wind_Direction
95 113 184 222 211 213 240 263 277 204 226 214 192 208 228 269 302 324 349 359 1 356 357 360 6 6 17 20 16 17 22 25 24 28 37 38 41 39 39 40 40 34 33 36
177 196 243 255 235 223 234 236 237 240 238 203 194 210 228 237 264 296 329 345 349 348 351 356 357 358 8 18 20 19 26 28 27 28 36 36 36 35 34 35 34 32 29 30
204 192 258 250 221 208 213 213 215 221 194 168 197 212 229 234 250 277 313 329 338 344 348 350 350 347 2 12 14 23 28 30 30 30 33 30 32 32 29 29 30 27 24 23
267 240 254 87 100 198 216 223 216 221 188 190 201 206 223 234 245 265 295 320 335 339 344 348 349 346 353 359 14 29 34 34 32 31 33 29 28 29 26 26 28 25 21 16
265 276 277 187 185 192 213 240 212 212 204 196 198 218 220 216 229 253 290 312 323 330 336 346 358 354 343 24 32 39 40 36 32 33 33 29 27 24 22 19 21 25 26 18
251 272 268 118 145 172 210 247 198 199 199 189 188 212 170 168 200 228 267 303 321 326 337 357 2 354 353 27 44 51 49 43 39 36 36 33 29 21 22 21 21 23 29 21
243 262 268 123 145 169 215 45 159 187 191 187 197 201 123 156 187 215 256 294 309 320 344 360 354 350 8 37 51 67 71 59 51 47 46 36 28 26 22 27 24 24 28 30
215 234 251 142 163 202 236 102 169 183 186 188 194 183 164 182 197 213 233 265 305 321 349 1 357 349 20 42 57 102 107 87 71 55 47 47 42 33 30 25 29 26 21 26
227 257 55 178 199 213 228 197 183 184 184 186 190 190 194 199 204 213 226 237 284 317 332 359 15 4 16 45 86 142 139 118 100 85 64 44 39 38 35 29 25 24 18 16
255 257 236 215 224 219 216 216 193 187 184 187 191 192 195 199 202 207 213 217 245 277 305 11 23 16 12 33 157 169 151 136 131 100 82 68 40 32 30 21 18 17 16 12
249 262 245 228 223 217 209 211 198 192 189 191 193 194 195 197 200 205 206 206 221 251 291 322 345 9 22 20 196 177 164 159 143 111 78 51 60 36 16 40 20 356 3 5
238 232 218 204 195 205 204 204 199 192 192 196 198 197 196 198 196 200 205 207 215 227 239 255 294 336 19 299 224 204 179 170 166 151 128 46 49 109 141 336 38 23 15 360
265 260 238 227 214 201 202 202 198 197 196 194 199 201 199 197 195 199 204 210 217 224 236 249 256 273 302 255 231 219 196 176 178 185 169 161 36 22 78 147 169 125 64 35
234 230 230 223 219 199 200 200 197 201 201 199 197 199 201 201 198 202 207 208 211 218 228 238 249 251 246 249 231 218 203 178 199 193 202 211 85 31 23 25 74 113 124 91
223 222 234 234 206 192 195 194 196 201 202 201 199 198 200 202 203 206 207 203 206 219 226 233 241 238 217 239 236 220 209 197 201 203 204 216 216 227 308 25 34 40 47 115
224 220 230 233 226 205 196 198 202 204 202 201 200 201 203 206 207 206 200 197 208 220 223 227 234 229 214 231 230 222 213 205 231 220 212 213 218 226 229 251 320 4 22 33
229 222 218 223 223 215 208 206 209 208 205 204 203 202 202 203 205 206 204 204 215 225 225 227 230 218 217 229 233 227 218 192 201 230 228 225 230 233 232 240 265 296 19 68
252 254 245 234 227 218 213 212 213 212 209 206 202 202 202 203 206 209 209 206 210 221 226 227 225 217 218 222 230 240 232 222 215 223 224 226 232 232 233 236 241 249 232 168
276 265 260 253 246 234 221 213 211 211 208 203 201 203 205 207 210 211 209 203 209 220 223 216 207 218 219 213 220 229 238 236 232 231 230 216 228 233 228 231 235 237 233 219
297 279 265 254 243 234 228 217 209 206 204 201 201 203 206 208 209 209 207 209 214 220 217 196 196 211 216 208 207 230 232 238 243 241 235 233 230 230 228 228 232 235 232 228
321 305 281 260 245 233 227 217 205 201 198 198 202 204 206 206 206 206 206 215 219 213 203 186 201 204 207 198 201 227 231 235 242 246 244 239 238 236 235 232 229 231 233 229
336 326 309 283 258 241 228 220 210 202 195 197 203 205 205 206 205 206 210 218 215 181 188 196 204 199 191 191 212 220 227 233 239 243 244 243 242 241 239 238 236 234 233 231
349 343 335 317 288 262 241 225 215 206 200 198 199 201 204 204 200 201 209 209 205 183 192 199 196 182 179 199 215 218 225 230 236 240 240 242 243 245 247 246 245 242 238 232
356 354 352 347 337 315 277 252 231 217 208 203 203 203 202 200 202 210 217 178 184 183 200 199 189 184 189 208 212 217 224 228 233 239 243 244 246 246 248 250 251 250 246 240
354 355 357 358 1 358 348 339 303 229 208 201 199 199 205 206 205 196 198 195 181 185 201 196 193 192 198 210 212 217 222 225 231 237 238 242 245 247 249 251 253 256 253 247
349 351 351 352 356 353 355 358 4 8 22 147 158 174 189 193 201 192 190 193 193 196 202 192 187 192 205 210 213 217 222 220 218 228 239 243 247 248 250 253 258 258 258 256
336 345 348 348 352 354 352 355 1 6 8 11 35 59 104 154 171 182 188 188 188 195 201 199 194 196 202 207 212 216 219 222 225 228 233 238 243 247 250 253 255 256 257 256